AE7RN Weather Reports


time (UTC)temp
F
wind
direction
speed
knots
gust
knots
rain 1hr
in
rain 24hr
in
rain mn
in
humidity
%
barometer
mb
20260508040133 53 177 1.7 3.5 0.00 0.00 0.00 61 1011.9
20260508033133 55 36 1.7 2.6 0.00 0.00 0.00 57 1011.3
20260508030132 57 36 0.0 0.9 0.00 0.00 0.00 53 1011.4
20260508023132 59 36 0.9 0.9 0.00 0.00 0.00 52 1010.7
20260508010130 64 324 9.6 14.8 0.00 0.00 0.00 43 1009.7
20260508003130 65 288 4.3 19.1 0.00 0.00 0.00 41 1008.8
20260508000129 66 279 5.2 13.9 0.00 0.00 0.00 38 1008.7
20260507230128 70 230 5.2 10.4 0.00 0.00 0.00 32 1008.8
20260507223128 68 11 3.5 12.2 0.00 0.00 0.00 34 1009.0
20260507220127 68 297 2.6 13.0 0.00 0.00 0.00 36 1009.2
20260507210126 68 288 7.0 13.0 0.00 0.00 0.00 38 1009.6
20260507203126 69 42 2.6 13.0 0.00 0.00 0.00 36 1010.3
20260507200125 68 294 4.3 15.6 0.00 0.00 0.00 38 1010.0
20260507193125 67 323 2.6 11.3 0.00 0.00 0.00 36 1010.4
20260507190125 67 289 7.8 14.8 0.00 0.00 0.00 35 1010.7
20260507183124 67 323 9.6 15.6 0.00 0.00 0.00 38 1011.2
20260507180123 66 281 8.7 15.6 0.00 0.00 0.00 41 1011.3
20260507173122 64 310 2.6 12.2 0.00 0.00 0.00 45 1011.5
20260507170122 65 324 7.0 14.8 0.00 0.00 0.00 40 1011.7
20260507153120 61 84 2.6 5.2 0.00 0.00 0.00 52 1012.3
20260507150120 58 94 1.7 6.1 0.00 0.00 0.00 57 1012.0
20260507143119 56 130 3.5 5.2 0.00 0.00 0.00 62 1012.0
20260507133119 50 87 0.9 7.0 0.00 0.00 0.00 77 1011.5
20260507130149 47 182 1.7 5.2 0.00 0.00 0.00 79 1011.3
20260507123147 48 108 0.9 5.2 0.00 0.00 0.00 80 1012.0
20260507120147 48 12 0.0 3.5 0.00 0.00 0.00 77 1012.2
20260507113146 50 296 1.7 10.4 0.00 0.00 0.00 72 1013.0
20260507110146 51 300 0.0 8.7 0.00 0.00 0.00 68 1012.2
20260507103145 51 223 6.1 13.0 0.00 0.00 0.00 68 1011.9
20260507100145 50 187 6.1 7.8 0.00 0.00 0.00 67 1011.7
20260507093144 52 171 0.9 7.0 0.00 0.00 0.00 66 1012.7
20260507090144 53 134 2.6 8.7 0.00 0.00 0.00 63 1012.9
20260507083144 55 84 0.9 3.5 0.00 0.00 0.00 58 1012.9
20260507080143 56 11 0.0 3.5 0.00 0.00 0.00 55 1013.3
20260507073142 57 265 0.0 6.1 0.00 0.00 0.00 53 1012.7
20260507070141 56 196 5.2 10.4 0.00 0.00 0.00 54 1012.7
20260507063142 58 210 7.8 14.8 0.00 0.00 0.00 52 1012.3
20260507060140 61 199 3.5 18.2 0.00 0.00 0.00 41 1012.5
20260507050140 60 181 10.4 28.7 0.00 0.00 0.00 42 1012.2